Flag for U.S.A. Weather past 2 weeks in Warren, Michigan, U.S.A.

Now
50 °F

Sunny.


Feels Like: 46 °F
Forecast: 33 / 57 °F
Wind: 10 mph from South

Location: Detroit City Airport


UV Index: 0 (Low)

Visibility: 10 mi


Pressure: 30.37 "Hg

Humidity: 41%

Dew point: 27 °F

Location of WarrenLocation

Historic Weather in Warren

°F

Warren temperature yesterday

Maximum temperature yesterday: 42 °F (at 5:53 PM)
Minimum temperature yesterday: 24 °F (at 4:53 AM)
Average temperature yesterday: 34 °F

Past Weeks' High & Low Weather Summary

 TemperatureHumidityPressure
High79 °F (Apr 13, 3:53 PM)93% (Apr 4, 5:53 AM)30.49 "Hg (Apr 4, 5:53 AM)
Low24 °F (Apr 16, 4:53 AM)21% (Apr 6, 3:53 PM)29.44 "Hg (Apr 4, 1:53 PM)
Average47 °F55%29.93 "Hg
* Reported Apr 2 10:53 AM — Apr 17 10:53 AM, Warren, Weather by CustomWeather, © 2014

Note: Actual official high and low records may vary slightly from our data, if they occured in-between our weather recording intervals... More about our weather records

Advertising

Historic Weather Conditions — Data for Previous 24 hours

 ConditionsComfort  
Time TempWeatherWind HumidityBarometerVisibility
10:53 AM
Apr 17
50 °FSunny.10 mph41%30.37 "Hg10 mi
9:53 AM46 °FSunny.9 mph48%30.37 "Hg10 mi
8:53 AM42 °FSunny.13 mph57%30.37 "Hg10 mi
7:53 AM39 °FSunny.9 mph65%30.38 "Hg10 mi
6:53 AM36 °FClear.8 mph67%30.38 "Hg10 mi
5:53 AM36 °FClear.7 mph67%30.37 "Hg10 mi
4:53 AM36 °FClear.10 mph67%30.37 "Hg10 mi
3:53 AM35 °FClear.13 mph67%30.38 "Hg10 mi
2:53 AM36 °FClear.12 mph62%30.39 "Hg10 mi
1:53 AM36 °FClear.16 mph57%30.40 "Hg10 mi
12:53 AM36 °FClear.14 mph59%30.41 "Hg10 mi
11:53 PM
Apr 16
36 °FClear.13 mph54%30.42 "Hg10 mi
10:53 PM36 °FClear.12 mph52%30.43 "Hg10 mi
9:53 PM36 °FClear.10 mph54%30.45 "Hg10 mi
8:53 PM37 °FSunny.12 mph48%30.44 "Hg10 mi
7:53 PM38 °FSunny.12 mph46%30.42 "Hg10 mi
6:53 PM41 °FSunny.9 mph39%30.42 "Hg10 mi
5:53 PM42 °FSunny.15 mph27%30.43 "Hg10 mi
4:53 PM41 °FSunny.12 mph39%30.44 "Hg10 mi
3:53 PM40 °FScattered clouds.12 mph45%30.44 "Hg10 mi
2:53 PM41 °FPassing clouds.13 mph43%30.45 "Hg10 mi
1:53 PM41 °FPassing clouds.9 mph41%30.47 "Hg10 mi
Weather by CustomWeather, © 2014

See weather overview